Wetbulb
53.38 53.56 53.55 53.65 53.88 54.06 54.52 54.46 54.48 54.73 54.90 55.20 55.22 55.30 55.42 55.78 55.56 51.36 47.84 54.17 58.05 63.15 63.88 57.94 59.28 61.78 60.66 58.38 59.40 59.63 46.54 43.35 46.32 48.60 51.15 55.88 54.25 58.47 59.24 57.49 58.53 59.76 58.54 60.62 62.95
53.13 53.36 53.43 53.69 53.72 53.96 54.09 54.17 54.51 54.54 54.69 54.96 55.06 55.05 55.08 55.48 50.81 48.29 55.96 62.97 63.68 66.81 55.75 53.00 54.76 60.33 57.22 57.65 58.23 55.13 47.20 47.55 51.51 52.82 52.48 55.04 55.95 56.85 56.92 57.18 57.12 59.04 61.13 62.06 61.09
52.90 53.07 53.09 53.28 53.55 53.83 54.01 54.07 54.18 54.47 54.63 54.77 54.78 54.79 55.18 54.39 47.81 48.96 62.40 63.12 62.85 65.29 55.01 54.55 54.94 54.75 52.97 55.02 56.39 54.79 49.52 52.12 52.77 54.50 55.61 55.30 56.27 58.59 56.83 54.76 56.53 57.04 58.89 59.70 59.68
53.82 53.88 53.55 53.47 53.47 53.37 53.73 53.88 54.17 54.29 54.28 54.13 54.31 54.41 55.07 50.74 38.85 51.25 62.22 63.61 65.26 61.02 54.02 51.93 49.92 48.02 47.94 50.21 55.02 50.94 54.39 54.62 54.44 55.83 55.12 54.58 57.40 56.69 57.11 56.50 60.02 60.07 60.92 60.56 59.18
53.54 53.78 53.67 53.85 53.98 53.91 53.90 53.70 53.98 54.26 54.35 54.16 53.99 54.15 50.31 43.63 43.47 52.47 64.38 62.52 55.26 53.54 51.92 50.03 47.38 45.97 43.98 49.38 52.32 50.44 51.88 54.64 56.71 56.37 55.92 57.35 56.04 56.03 56.11 59.06 60.07 60.13 60.22 59.10 59.12
53.57 53.26 53.12 53.12 53.41 53.88 54.48 54.52 54.27 53.91 53.92 54.18 54.22 53.97 47.16 37.83 50.32 52.14 52.33 55.07 55.56 52.63 51.39 50.40 47.79 49.10 46.07 47.01 47.52 51.86 53.25 53.33 53.82 54.03 55.33 54.58 54.94 55.72 56.88 58.67 58.28 58.27 58.17 57.99 58.67
53.89 53.72 53.29 53.40 53.29 53.99 54.11 54.03 53.84 54.21 53.87 54.41 54.89 52.15 44.92 42.25 50.48 50.97 49.94 48.56 50.63 52.21 51.61 53.89 53.11 50.40 49.66 46.44 50.38 50.28 47.79 50.05 51.60 53.49 52.55 54.86 51.51 52.61 56.45 57.74 57.30 57.13 57.78 57.74 58.42
52.96 53.31 53.32 53.21 53.50 53.91 54.17 53.94 53.53 53.58 53.81 54.60 55.36 50.12 41.05 50.45 51.41 49.87 50.23 49.61 52.00 51.49 50.49 51.50 51.44 47.91 46.65 49.25 49.54 47.73 47.34 43.05 49.07 51.56 53.94 53.66 47.33 53.62 56.62 56.32 55.95 56.69 57.35 57.58 57.64
52.06 52.75 53.32 53.00 53.18 53.60 53.74 53.41 54.07 54.22 54.74 54.86 50.34 47.16 40.95 54.59 49.18 51.43 51.00 48.62 49.72 50.44 50.21 51.47 48.98 45.46 46.50 42.40 41.24 44.13 40.10 42.19 45.96 51.81 52.05 51.47 48.41 53.59 56.02 55.77 55.18 56.08 56.49 57.18 56.64
52.61 52.91 52.69 52.64 52.62 52.93 52.71 53.06 53.63 54.05 53.32 53.51 51.76 44.38 47.41 46.48 51.24 52.02 52.64 50.82 48.87 48.17 46.33 45.65 43.73 41.53 40.66 39.50 34.46 39.05 40.80 43.33 43.44 48.61 50.55 49.15 49.06 52.26 54.22 54.51 54.64 55.39 56.20 56.82 55.95
52.42 52.73 52.64 52.77 52.95 52.36 50.31 46.60 44.42 43.85 47.48 43.27 44.58 45.79 48.42 52.25 53.24 48.74 49.95 48.89 47.37 46.90 38.52 41.52 37.67 36.45 39.44 42.06 43.42 44.23 43.73 43.15 46.25 49.53 48.31 47.39 47.74 49.85 52.73 52.43 52.73 53.94 54.07 54.46 54.90
51.98 52.16 52.81 52.79 52.77 52.44 49.02 44.55 47.01 45.06 38.22 45.38 45.14 45.10 47.42 48.38 42.94 45.31 48.31 42.48 41.71 37.66 42.79 40.12 35.10 41.15 44.34 43.86 42.80 42.47 40.57 41.05 45.95 49.06 47.58 47.16 47.04 50.55 52.16 52.25 53.36 53.95 53.59 54.65 54.43
52.03 52.36 52.75 52.68 52.24 49.71 47.12 47.50 50.86 48.60 37.53 41.23 44.79 43.83 44.32 46.13 42.22 42.80 45.76 42.98 39.50 36.80 37.75 37.51 39.97 44.19 43.48 42.52 41.60 41.32 40.24 40.45 40.88 45.87 47.30 45.54 43.06 45.87 50.11 52.54 53.96 54.88 54.84 54.91 54.90
51.81 52.06 52.14 52.01 47.93 48.05 46.02 50.21 50.23 49.54 30.70 36.02 41.99 44.09 44.60 44.13 40.55 46.97 47.58 43.71 40.12 36.12 37.34 36.40 41.76 42.92 41.28 40.49 42.85 38.02 44.57 44.14 43.77 41.87 37.31 44.15 35.72 43.65 47.51 49.61 51.91 53.46 53.03 53.88 55.06
51.41 51.93 51.85 51.09 46.08 45.61 48.30 49.70 48.71 44.44 22.27 39.99 41.19 49.93 47.63 43.40 45.36 46.51 48.49 45.11 38.93 38.74 37.71 34.86 37.47 38.15 39.28 40.76 44.00 40.85 45.51 43.71 43.46 41.18 39.86 40.86 36.37 42.63 47.16 47.09 49.15 51.78 53.70 54.35 55.06
51.26 51.45 51.23 49.67 47.25 48.98 49.95 49.50 45.83 31.38 23.25 35.32 41.27 39.83 39.82 42.39 43.19 46.06 46.74 49.14 46.71 39.41 39.25 38.04 41.93 39.88 38.87 41.72 44.58 45.12 43.46 42.72 41.92 39.59 33.36 39.11 38.86 40.09 43.04 46.11 48.03 51.16 52.43 53.35 52.93
51.05 50.90 48.76 49.89 44.81 49.73 48.99 43.94 28.46 24.98 37.91 34.35 35.87 39.47 38.38 37.94 39.01 41.30 41.18 40.04 36.73 33.36 33.17 38.27 38.85 41.85 42.40 37.71 40.77 41.16 37.48 30.48 29.85 31.18 31.20 40.46 38.96 41.99 45.63 48.94 50.46 50.87 52.32 52.73 53.87
50.08 49.34 49.82 50.58 51.41 49.46 45.60 35.79 22.70 33.32 33.47 38.70 37.98 38.22 35.51 37.65 36.99 38.89 37.64 34.77 39.95 39.12 33.84 31.62 30.55 40.50 44.35 38.86 35.79 36.75 37.61 31.78 25.42 28.60 32.54 40.81 36.88 40.79 48.59 51.30 52.06 52.98 52.43 53.01 53.22
48.66 48.99 49.03 50.49 51.69 48.58 39.44 28.31 29.81 34.24 37.13 36.01 36.99 32.85 33.33 36.91 35.68 36.08 35.57 36.04 38.55 40.05 32.84 31.13 31.52 41.61 41.45 42.09 40.18 36.35 33.76 40.59 35.10 37.76 33.44 36.63 41.36 45.53 47.85 48.45 50.38 51.24 52.45 56.32 57.81
45.01 45.41 47.56 51.63 51.19 45.86 36.77 32.24 34.71 39.89 39.09 38.17 31.18 34.67 29.96 31.79 33.75 34.30 33.70 38.52 38.28 41.35 39.66 36.38 28.83 38.08 39.68 42.65 43.90 40.79 41.04 34.12 35.86 28.15 27.73 35.37 38.04 38.82 44.43 47.31 49.47 50.96 51.82 56.80 58.96
45.03 43.28 48.41 51.54 50.19 42.42 33.17 34.33 37.45 40.92 40.85 37.40 34.84 33.52 33.70 31.80 33.96 32.83 33.77 37.45 41.05 40.49 40.14 36.59 32.85 33.41 38.69 36.31 36.61 37.47 35.42 36.26 36.43 36.29 31.26 30.81 35.31 45.13 48.83 50.16 49.04 51.34 52.57 57.78 58.32
43.93 38.58 48.47 49.74 37.79 39.73 34.92 36.99 40.42 39.82 41.73 40.18 39.54 36.97 34.70 35.35 33.87 33.53 33.69 37.20 40.56 39.92 34.79 38.17 33.85 29.51 32.94 40.56 43.07 41.19 38.12 37.18 32.64 32.26 37.09 35.29 36.78 46.84 49.47 49.64 51.50 51.92 53.00 58.33 59.06
40.39 43.21 50.16 47.86 33.39 32.87 37.46 38.17 39.07 38.87 38.27 38.26 36.46 37.95 37.69 33.73 31.25 35.31 36.63 40.43 41.13 39.33 37.08 36.99 31.55 26.67 30.13 35.51 40.54 38.51 41.72 40.86 39.39 39.22 35.61 34.26 37.39 47.98 50.55 50.11 51.64 50.56 54.25 58.67 59.08
42.69 37.31 42.09 43.21 41.51 38.25 35.83 35.26 34.82 41.06 40.00 39.65 37.64 38.77 36.27 34.48 36.34 33.62 35.30 39.15 41.09 40.02 44.12 40.72 32.25 30.80 25.80 30.88 36.33 34.17 36.17 39.39 37.04 35.56 36.85 38.61 39.88 44.31 49.23 49.74 51.31 51.02 57.79 58.55 59.24
43.85 38.98 40.34 33.57 35.33 37.11 38.42 36.67 34.09 34.61 39.38 38.97 36.29 36.86 34.58 30.32 32.39 33.02 35.79 37.29 40.11 41.54 40.46 38.99 31.11 32.57 33.45 35.50 36.90 36.03 35.24 36.96 34.75 36.12 35.77 40.40 41.99 44.74 48.57 50.42 53.31 56.52 57.99 57.97 58.61
41.39 38.46 40.91 37.15 38.54 38.03 37.28 34.93 33.99 35.42 35.38 34.39 34.38 36.46 35.73 31.78 33.41 32.01 34.92 34.88 34.18 38.75 38.20 39.21 30.80 34.03 32.46 36.72 37.54 35.03 36.65 37.20 37.28 38.00 39.40 42.50 42.38 51.16 51.68 54.56 56.59 57.24 57.85 57.89 58.46
44.55 45.67 41.64 37.98 37.35 35.19 35.90 37.25 36.38 37.79 37.94 38.41 36.95 36.28 35.03 37.03 39.90 39.96 39.70 39.15 38.01 35.22 34.64 35.57 33.87 33.57 29.76 37.09 34.87 29.83 34.46 36.50 38.01 40.93 41.84 40.39 46.99 50.14 50.16 52.28 53.80 56.82 57.54 57.94 58.77
MSLP
1020.94 1020.59 1020.22 1019.98 1019.60 1019.31 1018.92 1018.46 1018.10 1017.48 1017.22 1016.98 1016.79 1016.26 1015.73 1015.19 1014.55 1013.95 1012.34 1009.89 1009.72 1009.32 1009.43 1009.38 1009.29 1009.21 1009.42 1009.53 1009.48 1009.27 1009.63 1008.75 1007.50 1005.98 1004.22 1002.77 1002.70 1001.09 1000.52 1000.94 1001.09 1001.57 1001.67 1001.57 1001.80
1021.00 1020.62 1020.21 1019.85 1019.38 1019.10 1018.80 1018.42 1017.99 1017.54 1017.23 1016.62 1016.19 1015.79 1015.31 1014.76 1014.20 1012.34 1009.15 1008.69 1008.58 1008.74 1009.27 1009.17 1008.76 1008.72 1008.93 1008.55 1008.72 1008.66 1008.10 1007.67 1006.26 1005.38 1004.46 1003.28 1002.67 1001.65 1001.36 1000.95 1001.24 1001.20 1001.33 1001.27 1001.28
1021.04 1020.66 1020.31 1019.88 1019.43 1018.95 1018.58 1018.28 1018.00 1017.84 1017.33 1016.84 1016.18 1015.68 1015.25 1015.14 1013.69 1009.12 1007.76 1007.98 1008.06 1008.42 1008.38 1008.41 1008.45 1008.53 1008.43 1008.12 1007.81 1007.45 1006.58 1006.72 1005.78 1005.08 1004.33 1003.56 1002.63 1002.06 1001.74 1001.60 1001.19 1001.37 1001.66 1001.50 1001.33
1020.92 1020.55 1020.17 1019.83 1019.43 1019.02 1018.66 1018.17 1017.76 1017.38 1017.21 1016.86 1016.48 1015.91 1015.46 1015.19 1012.27 1007.78 1007.72 1007.56 1006.97 1007.85 1008.41 1008.31 1008.24 1008.31 1008.12 1007.55 1007.16 1006.66 1006.21 1006.12 1005.26 1004.65 1004.09 1003.31 1002.62 1002.07 1001.84 1001.51 1001.22 1000.94 1001.00 1001.11 1001.19
1020.91 1020.45 1019.97 1019.45 1018.94 1018.55 1018.16 1017.78 1017.43 1017.10 1016.67 1016.50 1016.30 1016.09 1015.72 1014.22 1010.71 1007.80 1008.04 1007.64 1007.21 1007.59 1007.87 1008.00 1008.12 1008.18 1007.59 1007.21 1006.80 1005.73 1005.82 1005.20 1004.41 1004.07 1003.62 1003.01 1002.17 1001.74 1001.21 1000.79 1000.55 1000.47 1000.96 1000.82 1000.80
1020.84 1020.38 1019.91 1019.37 1018.79 1018.11 1017.48 1017.01 1016.69 1016.45 1016.33 1015.87 1015.77 1015.80 1015.71 1013.51 1009.77 1008.30 1008.06 1007.57 1007.02 1007.46 1007.59 1007.89 1007.59 1007.83 1007.61 1006.97 1006.53 1005.69 1005.33 1004.51 1003.91 1003.32 1003.03 1002.70 1001.82 1001.40 1000.97 1000.65 1000.34 1000.24 1000.24 1000.41 1000.35
1020.60 1020.10 1019.53 1018.95 1018.33 1017.61 1017.09 1016.53 1016.05 1015.82 1015.66 1015.40 1015.40 1015.33 1014.30 1011.91 1008.89 1007.99 1008.13 1007.93 1007.58 1007.15 1006.87 1006.94 1007.09 1007.52 1006.92 1007.01 1006.45 1005.95 1005.48 1004.44 1003.33 1003.07 1002.44 1002.56 1000.65 1000.34 1000.53 1000.37 1000.14 1000.01 999.96 999.85 999.68
1020.52 1019.98 1019.40 1018.75 1018.02 1017.23 1016.45 1015.61 1014.85 1014.72 1014.68 1014.49 1014.46 1014.54 1012.40 1009.05 1008.66 1008.53 1007.68 1007.44 1007.06 1006.81 1006.88 1006.66 1006.62 1007.31 1007.05 1006.68 1006.29 1006.13 1005.45 1003.97 1003.01 1002.87 1001.80 1002.57 997.95 1000.18 1000.20 1000.28 1000.01 999.78 999.66 999.56 999.26
1020.41 1019.81 1019.16 1018.50 1017.76 1016.99 1016.24 1015.24 1013.83 1013.26 1013.56 1013.63 1014.03 1013.82 1011.04 1007.71 1008.01 1006.78 1006.93 1006.77 1006.78 1006.52 1006.70 1006.63 1006.61 1007.12 1007.14 1006.81 1006.53 1005.39 1004.30 1003.33 1002.41 1001.91 1001.86 1001.55 999.30 999.64 999.81 999.87 999.30 999.06 998.87 998.89 998.84
1020.13 1019.49 1018.81 1018.01 1017.36 1016.78 1016.06 1014.49 1012.19 1012.55 1012.46 1012.65 1012.73 1012.89 1009.24 1006.64 1005.66 1005.67 1005.53 1006.05 1006.15 1006.27 1006.52 1006.38 1006.72 1006.96 1006.79 1006.49 1004.80 1005.02 1004.03 1001.94 1001.45 1001.74 1001.33 1001.00 1000.03 999.35 999.18 999.18 998.61 998.38 998.21 998.17 998.08
1019.75 1019.01 1018.26 1017.42 1016.74 1016.27 1015.70 1014.52 1012.08 1012.24 1012.17 1011.50 1010.58 1009.54 1006.63 1005.89 1005.10 1005.10 1005.08 1005.36 1005.57 1005.99 1006.58 1006.62 1006.73 1005.13 1003.10 1005.17 1005.11 1004.13 1002.94 1001.97 1001.62 1001.74 1001.36 1000.67 999.93 999.18 998.80 998.56 998.09 997.83 997.82 997.62 997.54
1019.56 1018.61 1017.93 1017.15 1016.33 1015.53 1015.66 1014.52 1012.56 1012.13 1010.55 1009.50 1008.32 1007.13 1006.76 1006.13 1005.93 1005.39 1005.56 1005.71 1005.86 1005.99 1006.37 1006.69 1004.77 1003.52 1005.21 1004.91 1004.83 1004.32 1003.43 1002.02 1001.49 1001.44 1000.82 1000.11 999.79 998.76 998.19 997.63 997.29 997.17 997.11 996.98 996.82
1019.28 1018.40 1017.80 1016.78 1015.82 1015.02 1014.39 1013.00 1011.97 1011.49 1010.86 1007.00 1006.14 1005.58 1005.63 1006.17 1005.49 1005.00 1005.21 1005.27 1005.48 1005.92 1006.04 1005.67 1003.79 1004.70 1004.68 1004.21 1004.06 1003.25 1002.35 1002.64 1001.65 1001.73 1000.20 1000.12 999.87 998.74 997.59 996.68 996.61 996.46 996.19 996.26 996.53
1019.27 1018.50 1017.81 1016.81 1015.24 1014.56 1013.60 1012.73 1012.29 1011.97 1011.29 1008.61 1005.03 1003.78 1004.25 1004.89 1004.65 1003.63 1003.58 1004.46 1004.99 1005.51 1006.09 1004.95 1004.18 1003.69 1003.35 1003.17 1003.20 1002.12 1002.32 1002.09 1001.88 1002.10 1000.08 1000.93 1000.05 998.63 997.41 996.40 996.38 995.97 995.87 996.01 995.79
1019.17 1018.49 1017.60 1017.12 1016.57 1015.00 1013.56 1012.82 1012.31 1012.24 1011.63 1009.17 1008.15 1006.31 1004.67 1004.20 1004.31 1002.43 1002.46 1003.23 1003.93 1004.72 1005.42 1003.51 1003.54 1003.23 1002.90 1002.27 1002.39 1001.27 1001.87 1001.92 1001.75 1001.58 1001.38 1000.91 1000.76 995.79 997.05 996.21 995.73 995.46 995.46 995.24 995.09
1018.84 1018.20 1017.81 1016.18 1016.08 1014.35 1013.48 1012.95 1012.81 1012.98 1011.60 1009.35 1007.35 1005.87 1004.94 1004.40 1004.14 1003.33 1003.13 1003.15 1003.27 1004.11 1004.22 1003.74 1003.80 1003.62 1002.66 1002.48 1001.95 1002.24 1001.80 1002.04 1002.04 1001.94 1001.37 1000.03 1000.33 994.40 996.01 995.48 995.20 995.10 994.78 994.36 994.37
1018.47 1017.57 1017.57 1016.49 1015.24 1013.67 1013.60 1013.24 1013.47 1012.62 1010.68 1009.02 1007.43 1006.44 1005.66 1004.78 1003.88 1003.40 1003.59 1004.22 1004.92 1004.99 1004.59 1004.01 1003.57 1003.06 1002.72 1002.54 1002.09 1001.85 1002.22 1002.36 1002.12 1001.62 999.53 999.86 999.31 994.65 994.09 994.38 994.30 994.43 993.90 993.88 993.92
1018.02 1016.65 1015.62 1015.10 1014.51 1013.79 1013.90 1014.16 1013.65 1011.66 1010.20 1009.26 1008.54 1008.02 1007.09 1007.04 1006.06 1005.14 1004.44 1004.39 1004.78 1005.34 1005.03 1004.53 1004.08 1003.20 1002.72 1002.22 1002.21 1001.42 1001.89 1001.54 1000.83 1000.14 999.12 999.72 996.19 994.27 993.86 993.02 993.32 993.22 993.21 993.10 993.51
1017.56 1015.53 1014.77 1014.01 1013.93 1013.98 1014.50 1014.42 1013.36 1011.58 1010.09 1009.07 1008.86 1008.64 1008.35 1008.12 1008.36 1007.16 1006.15 1005.69 1005.49 1005.97 1006.41 1005.79 1004.68 1003.69 1003.29 1002.51 1001.94 1001.26 1001.00 1000.20 1001.11 1000.39 999.61 998.12 995.81 994.01 993.52 992.58 992.50 992.51 992.72 993.27 993.74
1017.95 1015.91 1014.04 1013.40 1013.72 1014.13 1014.58 1014.24 1013.69 1011.88 1010.14 1009.36 1009.37 1009.65 1009.56 1009.82 1009.42 1008.66 1008.11 1007.17 1006.90 1007.01 1007.02 1006.78 1005.86 1004.40 1002.78 1002.23 1001.34 1001.20 1000.44 1000.83 1000.27 1000.30 999.39 997.31 995.67 993.67 992.34 991.47 990.87 991.90 992.77 993.44 994.30
1017.19 1015.37 1013.46 1012.92 1013.58 1014.46 1015.10 1014.33 1012.98 1011.44 1010.18 1009.86 1009.52 1009.51 1010.21 1010.64 1010.06 1009.35 1008.96 1008.32 1007.62 1007.05 1007.01 1006.90 1006.46 1004.65 1004.28 1002.67 1001.99 1001.01 1000.32 1000.45 1000.34 999.68 999.19 997.60 995.27 993.01 991.63 990.24 990.47 991.21 991.86 993.07 994.20
1017.18 1015.40 1013.23 1012.91 1014.17 1014.78 1015.11 1014.30 1013.12 1011.64 1010.73 1009.81 1009.87 1010.03 1010.62 1010.78 1010.35 1009.63 1009.26 1008.94 1009.23 1008.60 1007.68 1007.30 1006.82 1005.90 1004.48 1002.81 1002.27 1001.74 1000.62 1000.58 1000.75 999.49 998.59 997.00 994.44 992.26 991.32 990.08 989.92 990.59 991.14 992.49 993.63
1018.45 1015.30 1013.24 1013.25 1014.52 1015.15 1015.13 1014.08 1013.25 1011.97 1011.89 1011.13 1010.50 1010.41 1011.15 1011.27 1011.44 1010.11 1009.24 1009.35 1009.33 1009.07 1008.58 1008.09 1007.84 1006.92 1004.37 1002.65 1001.84 1001.78 1000.95 1000.46 1000.15 999.80 997.95 996.76 993.45 992.20 991.10 990.31 989.86 990.30 991.22 992.14 993.50
1019.19 1016.35 1014.73 1014.25 1015.29 1015.61 1015.61 1014.37 1013.38 1012.35 1011.64 1011.01 1010.80 1010.64 1011.08 1011.05 1010.44 1009.93 1009.35 1009.32 1009.33 1009.07 1008.80 1008.97 1008.38 1007.90 1006.67 1004.99 1004.95 1003.87 1002.79 1001.98 1002.08 999.41 997.74 995.29 994.16 992.33 991.34 990.54 989.95 989.95 991.00 991.89 993.11
1019.15 1017.55 1017.20 1016.55 1016.35 1016.21 1015.82 1015.12 1014.08 1013.20 1012.43 1011.76 1011.18 1011.05 1011.08 1010.64 1009.98 1009.43 1009.24 1008.71 1008.52 1008.79 1008.97 1008.95 1008.68 1007.69 1006.61 1005.22 1004.90 1004.19 1003.27 1002.20 1002.19 1000.53 998.42 995.16 993.30 992.29 991.29 990.14 989.78 989.99 991.06 991.93 993.16
1019.51 1019.12 1018.38 1017.90 1017.10 1016.58 1016.11 1015.41 1014.70 1013.90 1013.52 1012.34 1011.76 1011.32 1010.83 1010.48 1009.79 1008.70 1008.51 1008.52 1008.57 1008.32 1008.32 1008.55 1008.19 1007.42 1006.07 1004.58 1003.84 1003.59 1003.12 1002.40 1001.53 999.65 997.85 994.90 992.81 992.22 991.23 990.21 990.47 990.92 991.59 992.28 992.98
1020.11 1019.77 1019.34 1018.11 1017.36 1017.02 1016.44 1015.89 1015.09 1014.31 1013.25 1012.65 1011.99 1011.26 1010.47 1009.52 1008.80 1007.89 1007.43 1007.15 1007.41 1007.51 1007.62 1008.01 1007.95 1007.09 1005.38 1003.34 1003.68 1003.11 1001.78 1001.50 1000.58 999.06 997.58 994.69 993.06 992.47 992.05 991.74 991.68 991.53 991.93 992.58 992.98
Wind_Speed
16 15 15 15 15 15 16 17 18 18 19 18 18 18 19 21 22 11 10 12 9 6 4 5 10 11 11 8 9 7 3 8 10 10 14 17 14 19 7 3 2 3 3 3 10
15 15 15 16 16 15 16 16 17 18 19 20 21 21 21 22 16 13 15 14 19 9 10 12 11 11 11 13 7 11 8 15 15 12 13 17 19 17 16 2 5 3 7 8 7
15 15 15 15 16 16 17 17 16 16 16 18 19 21 22 19 8 8 7 19 23 12 12 9 12 11 9 9 16 17 19 17 16 17 17 20 18 15 22 13 5 4 8 8 6
17 16 16 16 15 15 16 17 17 17 16 15 16 19 21 6 7 3 2 3 9 16 12 12 9 13 12 17 18 21 21 19 18 20 21 22 18 18 19 16 5 15 17 9 9
18 18 19 19 19 18 17 17 18 18 17 17 15 13 8 6 11 12 3 5 5 9 13 12 12 6 13 12 19 24 18 19 21 22 23 21 23 21 21 21 14 12 9 10 9
18 19 20 20 20 20 20 20 17 17 19 18 15 11 6 13 12 18 16 7 8 10 12 11 9 9 10 13 19 12 16 20 18 20 21 24 24 22 21 12 15 18 20 11 9
18 19 21 23 24 24 23 22 21 19 17 18 16 8 11 21 9 14 17 13 11 11 13 16 19 16 7 13 21 18 20 21 24 20 22 21 30 28 14 14 19 17 18 13 10
18 19 21 22 23 24 25 27 28 25 22 18 13 7 9 17 16 21 19 16 17 13 14 13 7 6 7 7 16 18 17 22 19 21 22 17 34 15 17 17 18 15 18 13 10
20 19 20 23 24 25 26 28 32 30 20 12 5 6 9 11 9 16 13 14 14 15 15 15 10 7 9 4 7 12 21 23 24 24 16 14 29 20 16 20 24 21 20 18 12
20 19 20 22 23 23 26 31 30 17 10 9 9 7 9 9 6 11 14 16 9 10 10 11 7 10 9 10 17 11 22 26 26 13 17 20 27 28 26 21 21 22 20 19 14
23 21 22 23 24 22 16 9 9 5 4 12 17 13 25 13 17 6 7 1 7 4 9 9 9 22 33 21 15 19 23 18 17 18 16 19 25 26 18 11 16 17 13 10 9
24 25 25 26 26 24 8 3 13 8 15 21 24 29 25 23 22 21 18 15 7 8 10 9 25 25 15 19 21 23 24 21 14 12 17 21 20 25 21 18 23 22 11 12 8
24 26 26 27 24 11 5 10 16 12 8 28 25 27 22 21 22 24 18 16 15 13 12 16 15 16 20 20 21 27 26 18 21 12 19 11 13 19 16 15 12 12 11 7 10
25 26 24 24 6 9 8 15 14 12 5 16 8 3 9 20 22 26 21 18 15 17 13 17 17 21 20 24 19 25 12 21 18 13 21 5 15 19 16 20 16 12 8 9 9
25 25 24 16 6 6 10 10 8 4 6 11 15 12 18 3 6 7 13 15 19 16 11 21 14 8 17 20 20 22 16 18 12 17 16 16 6 26 8 12 9 10 17 14 13
25 25 22 7 3 9 8 10 5 3 4 12 5 13 8 4 14 3 7 8 5 14 16 18 12 17 18 17 19 17 17 18 15 11 14 17 12 33 18 20 8 9 12 13 11
27 28 16 6 5 6 5 6 5 1 5 13 22 22 20 17 11 8 8 7 0 4 10 13 16 17 18 20 18 13 13 7 9 12 19 12 11 23 5 14 20 15 16 11 10
28 30 8 7 8 4 4 4 4 18 16 16 16 17 8 20 15 18 15 6 5 4 5 7 7 8 9 19 12 13 13 11 16 12 15 7 18 13 13 18 18 20 15 10 7
28 4 3 4 5 2 2 2 4 12 16 17 16 9 9 21 10 13 11 11 6 4 2 6 7 14 21 18 16 21 20 13 17 15 7 7 20 23 26 26 18 17 6 8 12
7 4 4 7 3 1 2 4 5 19 17 16 7 4 13 13 11 9 10 4 3 5 3 1 9 8 18 13 15 14 11 8 10 18 17 8 15 13 16 16 19 9 11 11 16
2 4 3 4 4 4 2 5 18 19 20 14 18 12 1 4 8 10 7 12 9 2 7 5 6 9 10 3 8 8 17 13 7 11 11 12 13 14 11 8 9 11 10 18 17
5 4 4 2 1 2 3 13 17 18 17 13 9 16 10 10 10 8 10 3 8 17 5 5 3 7 12 15 18 18 20 16 10 9 10 6 12 7 11 5 9 11 11 19 19
7 5 3 4 1 3 7 15 17 13 10 10 7 11 6 6 7 14 7 10 9 10 10 3 3 6 8 6 8 6 9 12 8 15 18 15 15 14 10 4 7 8 13 19 19
4 4 5 3 6 4 8 8 17 13 16 15 12 10 2 5 11 11 15 3 6 6 20 7 3 8 8 14 9 11 20 15 9 11 12 19 11 11 13 9 8 2 19 22 21
3 3 5 6 8 12 11 8 16 14 10 14 9 15 16 14 16 8 15 11 13 1 3 1 5 10 15 20 13 14 18 20 15 17 11 16 17 15 9 5 3 17 19 21 20
4 4 4 8 11 10 6 4 13 14 13 14 12 18 13 13 12 19 16 9 7 6 3 2 5 6 15 19 15 12 15 19 19 23 19 23 7 8 7 5 11 14 17 19 20
4 4 5 6 7 8 6 8 15 16 10 15 17 16 16 17 16 18 15 16 12 10 11 9 4 4 5 7 10 6 13 16 16 19 19 19 6 6 7 9 5 10 13 17 19
Wind_Direction
359 356 353 351 349 345 341 337 333 335 333 330 327 327 328 326 320 296 231 223 206 218 185 286 197 219 214 214 223 230 229 255 250 253 276 299 324 312 323 46 344 67 29 299 158
356 353 350 345 342 339 336 332 330 328 325 325 327 326 328 330 304 254 237 224 240 202 213 236 235 219 226 210 217 219 224 235 245 259 277 296 298 301 314 206 235 359 339 298 275
351 347 344 338 335 332 328 325 324 320 319 319 322 323 326 325 266 236 155 225 239 214 228 225 231 234 220 246 218 236 238 241 259 258 264 270 279 306 301 303 235 59 264 295 247
343 341 338 333 327 321 316 314 315 316 314 312 314 319 320 299 244 98 237 174 201 220 229 236 243 243 239 223 237 244 236 238 249 263 272 272 278 276 281 282 220 204 228 245 252
347 343 338 331 324 317 311 307 306 307 307 305 307 314 325 243 248 274 260 201 161 176 221 216 235 239 247 240 228 238 247 239 243 247 254 269 272 269 273 281 292 300 269 269 251
346 343 339 333 328 321 314 307 301 298 298 298 299 300 261 259 260 272 281 266 219 190 212 221 229 235 291 249 250 264 254 256 250 242 248 257 264 264 260 266 288 284 285 270 262
344 339 335 333 329 323 318 311 303 298 294 290 290 271 252 248 239 296 307 298 291 287 244 220 217 222 174 254 259 263 266 271 261 258 247 255 260 253 272 277 273 264 268 264 268
339 333 330 327 323 318 316 311 305 299 294 286 278 261 257 257 248 254 269 265 270 276 277 289 303 284 245 271 275 259 258 254 255 261 253 253 262 273 274 277 275 274 281 268 266
336 331 326 323 320 318 315 309 298 294 288 267 232 205 254 266 215 246 232 247 260 249 243 254 258 253 290 240 267 234 239 249 249 236 253 248 275 270 271 260 254 256 262 265 250
332 326 323 318 316 317 318 307 288 287 265 216 227 217 246 241 210 227 205 221 216 234 265 228 224 225 235 219 218 217 226 235 246 239 237 243 255 264 263 258 259 263 258 248 234
330 325 323 321 322 320 328 327 347 20 253 291 282 237 292 287 313 290 226 228 272 190 211 236 215 221 218 218 229 246 240 252 244 243 262 256 258 268 268 262 268 262 259 222 220
331 332 330 325 320 316 294 253 319 283 291 270 256 255 248 274 286 284 293 284 250 230 222 235 228 228 237 226 231 245 261 262 263 246 246 247 257 255 252 252 249 255 247 237 235
332 329 331 325 317 309 267 330 335 344 299 291 253 247 243 240 247 254 239 248 245 250 242 229 245 223 231 232 228 232 238 247 256 286 279 288 290 285 283 273 261 252 246 220 219
327 326 332 335 332 313 347 351 335 337 300 311 313 42 203 232 253 248 223 223 229 234 242 260 254 239 245 229 231 243 233 238 253 240 255 205 272 264 265 264 266 262 263 251 239
325 326 330 322 285 295 339 339 328 44 296 0 350 283 314 28 319 2 200 219 223 222 211 240 274 261 247 249 232 253 225 258 256 246 262 253 270 265 214 253 248 256 253 255 256
324 324 332 309 209 255 338 310 325 50 314 312 292 323 331 354 288 349 313 323 293 212 239 250 243 257 263 272 251 263 242 244 258 261 263 247 221 267 240 250 250 242 249 241 236
322 317 316 297 259 348 355 335 37 136 229 354 355 351 335 332 311 240 218 151 267 345 277 248 246 251 252 269 275 260 232 248 237 228 238 219 243 235 251 235 238 241 248 250 239
321 309 244 230 267 359 343 7 30 351 4 353 0 344 330 14 335 342 332 296 165 305 292 256 264 262 254 230 253 254 233 219 214 216 246 236 241 238 240 261 239 246 242 243 231
322 289 214 229 258 26 23 316 303 334 347 337 2 342 349 2 336 349 340 15 25 97 305 10 282 312 302 298 228 251 249 246 251 280 224 234 240 263 258 258 256 244 222 118 106
311 277 252 124 143 281 333 269 300 300 326 317 3 354 324 343 332 358 312 240 109 152 247 86 285 277 287 285 278 233 259 249 223 233 254 242 250 256 263 256 235 215 155 131 132
210 264 132 158 141 46 16 288 306 312 317 334 322 313 80 314 296 318 219 311 303 293 197 210 195 275 300 255 270 268 238 240 279 218 231 256 258 262 273 201 171 182 159 148 146
316 309 199 183 12 132 252 312 297 339 341 320 344 345 13 356 322 316 333 317 347 329 295 336 310 281 262 281 279 285 265 231 226 251 232 240 247 249 268 173 151 188 147 148 144
314 271 232 97 327 336 315 307 314 315 307 314 326 341 37 16 325 291 311 6 12 7 339 347 273 302 310 235 251 284 327 252 247 237 218 239 245 265 310 260 216 179 146 142 139
288 321 334 340 10 338 312 305 326 333 312 360 336 320 91 290 307 313 315 345 278 233 277 298 249 254 275 296 326 294 310 321 348 249 233 225 251 256 242 233 228 206 145 143 144
248 341 28 322 326 334 326 293 322 327 322 346 318 346 337 321 311 296 317 320 320 154 282 192 246 254 271 277 272 270 285 299 307 283 275 234 217 230 281 237 154 142 140 137 142
338 350 346 291 304 316 321 291 320 329 327 309 323 322 314 300 304 312 303 299 277 265 224 172 262 292 277 263 252 232 266 283 284 281 281 257 234 237 22 48 99 120 133 142 145
4 344 292 281 316 335 334 326 312 315 310 325 305 317 309 294 292 287 286 275 243 248 261 259 261 294 294 135 119 301 258 262 271 265 263 265 164 314 113 29 80 141 140 151 150